Regional Weather Roundup
Issued by NWS

Home | Current Version | Previous Version | Graphics & Text | Print | Product List | Glossary On
Versions: 1 2 3 4 5 6 7 8 9 10 11 12 13 14 15 16 17 18 19 20 21 22 23 24 25 26 27 28 29 30 31 32 33 34 35 36 37 38 39 40 41 42 43 44 45 46 47 48 49 50
000
ASUS43 KMKX 242300
RWRWI

WISCONSIN REGIONAL WEATHER ROUNDUP
NATIONAL WEATHER SERVICE MILWAUKEE/SULLIVAN WI
500 PM CST FRI FEB 24 2017

NOTE: "FAIR" INDICATES FEW OR NO CLOUDS BELOW 12,000 FEET WITH NO
SIGNIFICANT WEATHER AND/OR OBSTRUCTIONS TO VISIBILITY.

WIZ001-002-006>008-014>016-023>028-250000-
NORTHWEST WISCONSIN

CITY           SKY/WX    TMP DP  RH WIND       PRES   REMARKS
SUPERIOR ARPT  CLOUDY    24  10  56 N10       29.90S WCI  13
ASHLAND        CLOUDY    18  10  71 N15       29.87F WCI   4
HAYWARD        FLURRIES  19  10  68 N14G23    29.82R WCI   6
SIREN          CLOUDY    23  10  59 N16G22    29.84S WCI   9
CUMBERLAND     CLOUDY    21  10  63 N17G23    29.78S WCI   7
RICE LAKE      LGT SNOW  22  15  75 N17G23    29.79R WCI   7
CHETEK         LGT SNOW  21  16  81 N14G20    29.78R WCI   8
LADYSMITH      LGT SNOW  22  16  76 N16G22    29.75R WCI   8
EAU CLAIRE     LGT SNOW  23  17  78 N16G22    29.74R WCI  10
MENOMONIE      LGT SNOW  24  18  79 N17G23    29.78R WCI  10
NEW RICHMOND   CLOUDY    24  14  66 N18G24    29.81R WCI  10
OSCEOLA        CLOUDY    25  13  60 N14G23    29.85R WCI  13
$$

WIZ003>005-009-010-017-018-250000-
NORTH CENTRAL WISCONSIN

CITY           SKY/WX    TMP DP  RH WIND       PRES   REMARKS
MANITOWISH WTR LGT SNOW  18  15  89 N14G22    29.70F WCI   4
ARBOR VITAE    CLOUDY    19  14  79 N12G18      N/A  WCI   7
WOODRUFF       CLOUDY    19  14  79 N12G18      N/A  WCI   7
RHINELANDER    LGT SNOW  20  15  81 N10G18    29.66S WCI   9
EAGLE RIVER    LGT SNOW  18  12  76 N17G23    29.67S WCI   3
LAND O LAKES   FLURRIES  18  14  82 N13G18    29.69F WCI   5
PHILLIPS       LGT SNOW  19  17  89 N14G20    29.70S WCI   6
TOMAHAWK       LGT SNOW  20  15  80 N12G18    29.67S WCI   8
MEDFORD        FLURRIES  22  15  76 N15G21    29.65S WCI   8
MERRILL        NOT AVBL
$$

WIZ029-030-035-036-043>047-250000-
CENTRAL WISCONSIN

CITY           SKY/WX    TMP DP  RH WIND       PRES   REMARKS
WAUSAU         CLOUDY    23  17  78 N10G26    29.63S WCI  12
MOSINEE        CLOUDY    25  19  80 N14G23    29.63F WCI  13
MARSHFIELD     FLURRIES  24  17  74 N14       29.63R WCI  12
STEVENS POINT  LGT SNOW  23  21  93 N8        29.63S WCI  14
WAUPACA        CLOUDY    28  25  88 N8        29.60F FOG     WCI  20
WAUTOMA        CLOUDY    26  24  92 N12G18    29.61R FOG     WCI  16
WISC RAPIDS    LGT SNOW  26  22  84 N12       29.64R FOG     WCI  16
CAMP DOUGLAS   LGT SNOW  25  23  93 N3        29.64R FOG
$$

WIZ011>013-019>022-031-037>040-048>050-250000-
NORTHEAST WISCONSIN

CITY           SKY/WX    TMP DP  RH WIND       PRES   REMARKS
ANTIGO         CLOUDY    21  17  85 N17       29.62S FOG     WCI   6
SHAWANO        CLOUDY    28  25  88 N10       29.63R FOG     WCI  18
OCONTO         CLOUDY    26  23  91 N14G21    29.61R WCI  14
STURGEON BAY   MIX PCPN  27  25  92 MISG      29.57F FOG
GREEN BAY      FRZ RAIN  27  26  96 N21G28    29.59R FOG     WCI  13
MANITOWOC      MIX PCPN  30  28  93 N15G21    29.53F FOG     WCI  19
APPLETON       CLOUDY    27  25  93 N20G26    29.56S WCI  13
CLINTONVILLE   MIX PCPN  27  23  86 N15G21    29.61S WCI  15
OSHKOSH        FRZ RAIN  28  25  88 N21       29.56F FOG     WCI  15
$$

WIZ032>034-041-042-053>061-250000-
SOUTHWEST WISCONSIN

CITY           SKY/WX    TMP DP  RH WIND       PRES   REMARKS
LA CROSSE      LGT SNOW  28  23  81 N15       29.69S WCI  16
SPARTA         MOCLDY    27  23  86 N9G20     29.67S WCI  17
VIROQUA        CLOUDY    26  24  92 N10       29.63R WCI  16
BOSCOBEL       FLURRIES  30  26  85 NE10      29.63F WCI  21
PRAIRIE DU CHI MIX PCPN  29  27  91 N10G17    29.64S WCI  20
PLATTEVILLE    CLOUDY    30  30 100 N6        29.58F WCI  24
$$

WIZ056-057-062-063-064-067-068-250000-
SOUTH CENTRAL WISCONSIN

CITY           SKY/WX    TMP DP  RH WIND       PRES   REMARKS
REEDSBURG      CLOUDY    27  26  98 N10       29.61R FOG     WCI  17
BARABOO/DELLS  CLOUDY    27  25  93 N7        29.60S FOG     WCI  19
LONE ROCK      CLOUDY    29  25  85 N12       29.63R WCI  19
MINERAL POINT  CLOUDY    30  30 100 N3        29.58R FOG
MADISON        FRZ RAIN  28  26  92 N14       29.58R FOG     WCI  17
MIDDLETON      CLOUDY    30  30  98 N5        29.58R WCI  25
WATERTOWN      CLOUDY    29  29 100 N10G17    29.54R FOG     WCI  20
MONROE         CLOUDY    30  30 100 N13G20    29.55R FOG     WCI  20
JANESVILLE     CLOUDY    30  30 100 N10G16    29.55R WCI  21
$$

WIZ051-052-058>065-066-070>072-250000-
SOUTHEAST WISCONSIN

CITY           SKY/WX    TMP DP  RH WIND       PRES   REMARKS
MILWAUKEE      DRIZZLE   35  33  92 N14       29.50R FOG     WCI  26
WAUKESHA       CLOUDY    30  30 100 N13       29.52R FOG     WCI  20
MILWAUKEE/TIMM LGT RAIN  34  30  86 N12G17    29.51R WCI  25
RACINE         CLOUDY    35  33  92 N16G26    29.51R FOG     WCI  25
KENOSHA        CLOUDY    35  33  92 N10       29.51R FOG     WCI  27
FOND DU LAC    MIX PCPN  29  25  85 N17G25    29.56S FOG     WCI  17
SHEBOYGAN      CLOUDY    30  27  88 N10G20    29.51S FOG     WCI  21
WEST BEND      MIX PCPN  30  30 100 N3        29.51S
JUNEAU         CLOUDY    28  26  94 N10       29.55S FOG     WCI  18
$$

LSZ147-162-250000-
LAKE SUPERIOR

STATION/POSITION TIME  TEMP    WIND        PRES    WAVE
                       AIR SEA DIR/SP/G            HT/PER
                 (UTC) (F)     (DEG/KT/KT) (MB)    (FT/S)
DEVILS ISLAND    2200   19      20/ 14/ 16 1013.8S
PORT WING        2230   22      20/ 13/ 17 1012.5S
SAXON HARBOR     2230   22      30/ 21/ 24 1010.8S
$$

LMZ867-665-643>646-250000-
LAKE MICHIGAN

STATION/POSITION TIME  TEMP    WIND        PRES    WAVE
                       AIR SEA DIR/SP/G            HT/PER
                 (UTC) (F)     (DEG/KT/KT) (MB)    (FT/S)
NORTHPORT PIER   2240   28      10/  3/  4 1003.0S
SISTER BAY       2235   27        CALM       N/A
KEWAUNEE LAKESHO 2230   29      10/ 11/ 18 1000.2F
SHEBOYGAN LAKESH 2200   34      10/ 28/ 31  999.6R
PORT WASHINGTON  2230   33     340/  7/ 17 1000.3S
MILWAUKEE LAKESH 2230   34     350/ 15/ 19   N/A
KENOSHA   LAKESH 2200   36     360/ 16/ 21  998.3
$$

TC  - TEMPERATURE IN CELSIUS
VSB - VISIBILITY IN STATUTE MILES
WCI - WIND CHILL INDEX
HX  - HEAT INDEX





USA.gov is the U.S. government's official web portal to all federal, state and local government web resources and services.